FW3585 Weather Reports


Display with metric or nautical units.
time (UTC)temp
F
wind
direction
speed
MPH
gust
MPH
rain 1hr
in
rain 24hr
in
rain mn
in
humidity
%
barometer
mb
20260507163056 52 79 5.0 9.0 0.00 0.08 0.05 93 1011.7
20260507161555 52 100 3.0 8.0 0.00 0.08 0.05 94 1011.7
20260507160052 52 151 3.0 9.0 0.00 0.08 0.05 93 1012.0
20260507154549 52 74 2.0 12.0 0.00 0.09 0.05 93 1012.0
20260507153101 52 53 4.0 8.0 0.00 0.09 0.05 93 1011.8
20260507151545 52 86 3.0 9.0 0.01 0.09 0.05 93 1011.7
20260507150045 52 81 6.0 11.0 0.01 0.09 0.05 92 1011.6
20260507144545 53 55 5.0 11.0 0.01 0.14 0.05 93 1011.5
20260507143053 53 17 5.0 10.0 0.01 0.14 0.05 93 1011.6
20260507141540 53 42 4.0 12.0 0.00 0.13 0.04 93 1011.5
20260507140039 53 62 3.0 17.0 0.01 0.13 0.04 93 1011.5
20260507134535 54 55 9.0 15.0 0.01 0.13 0.04 93 1011.6
20260507133033 54 66 6.0 11.0 0.01 0.13 0.04 93 1012.2
20260507131538 55 58 6.0 14.0 0.01 0.13 0.04 93 1011.9
20260507130023 57 45 3.0 9.0 0.00 0.12 0.03 95 1011.6
20260507124521 58 76 2.0 12.0 0.00 0.13 0.03 95 1011.6
20260507123022 59 84 4.0 13.0 0.00 0.13 0.03 94 1010.8
20260507121514 61 72 3.0 11.0 0.00 0.13 0.03 95 1010.6
20260507120011 61 73 4.0 8.0 0.00 0.13 0.03 96 1010.8
20260507114509 61 65 2.0 4.0 0.00 0.13 0.03 97 1010.8
20260507113008 61 42 1.0 2.0 0.00 0.13 0.03 97 1010.4
20260507111509 61 40 0.0 0.0 0.00 0.13 0.03 97 1010.9
20260507110006 61 40 0.0 2.0 0.00 0.13 0.03 97 1010.5
20260507104505 61 40 0.0 3.0 0.00 0.13 0.03 97 1010.3
20260507103003 61 40 1.0 3.0 0.00 0.13 0.03 97 1010.0
20260507101502 61 42 1.0 3.0 0.00 0.13 0.03 97 1009.8
20260507100002 61 42 0.0 2.0 0.00 0.13 0.03 97 1009.9
20260507094501 61 137 1.0 4.0 0.00 0.13 0.03 97 1009.8
20260507093003 61 350 0.0 1.0 0.00 0.13 0.03 97 1009.4
20260507091559 61 350 1.0 3.0 0.00 0.13 0.03 96 1009.8
20260507084606 62 349 1.0 5.0 0.00 0.13 0.03 96 1010.1
20260507083059 62 336 4.0 9.0 0.00 0.13 0.03 96 1010.1
20260507081559 62 232 1.0 5.0 0.00 0.13 0.03 96 1010.0
20260507080057 62 13 0.0 2.0 0.00 0.13 0.03 96 1010.1
20260507074603 62 14 0.0 1.0 0.00 0.13 0.03 96 1010.5
20260507073055 62 14 0.0 2.0 0.00 0.13 0.03 96 1009.6
20260507071604 61 11 1.0 5.0 0.00 0.13 0.03 96 1009.7
20260507070105 62 238 2.0 4.0 0.00 0.13 0.03 95 1009.7
20260507064557 62 178 0.0 3.0 0.01 0.13 0.03 95 1009.6
20260507063051 62 178 0.0 3.0 0.01 0.13 0.03 94 1009.6
20260507061551 62 169 0.0 5.0 0.01 0.13 0.03 94 1009.9
20260507060049 62 182 2.0 7.0 0.01 0.13 0.03 94 1009.9
20260507054607 62 154 2.0 6.0 0.01 0.12 0.02 93 1010.3
20260507053056 62 201 5.0 10.0 0.01 0.12 0.02 93 1010.9
20260507051550 63 173 1.0 3.0 0.01 0.12 0.02 93 1010.5
20260507050049 63 168 1.0 5.0 0.02 0.12 0.02 93 1010.4
20260507044551 63 174 2.0 6.0 0.01 0.11 0.01 93 1010.3
20260507043040 64 193 2.0 7.0 0.02 0.11 0.01 94 1010.3
20260507041540 64 162 4.0 11.0 0.02 0.11 0.01 94 1010.8
20260507040039 65 212 6.0 13.0 0.01 0.10 0.00 93 1011.4
20260507034532 65 229 4.0 9.0 0.01 0.10 0.10 93 1011.7
20260507033032 65 246 2.0 8.0 0.00 0.09 0.09 91 1012.0
20260507031532 66 232 2.0 11.0 0.00 0.09 0.09 90 1011.1
20260507030032 66 244 2.0 9.0 0.00 0.09 0.09 89 1011.5
20260507024534 66 213 5.0 13.0 0.00 0.09 0.09 88 1011.4
20260507023029 66 212 7.0 12.0 0.00 0.09 0.09 87 1010.9
20260507021534 66 188 5.0 11.0 0.00 0.09 0.09 87 1010.4
20260507020029 66 155 3.0 10.0 0.00 0.09 0.09 87 1010.1
20260507014530 66 211 2.0 7.0 0.00 0.09 0.09 87 1010.5
20260507013027 66 157 1.0 7.0 0.00 0.09 0.09 87 1010.8
20260507011527 66 176 3.0 6.0 0.00 0.09 0.09 87 1011.0
20260507010036 67 207 0.0 4.0 0.00 0.09 0.09 86 1011.1
20260507004527 67 203 1.0 5.0 0.00 0.09 0.09 86 1010.6
20260507003026 67 187 2.0 6.0 0.00 0.09 0.09 85 1010.2
20260507001530 67 214 3.0 7.0 0.00 0.09 0.09 85 1010.1
20260507000031 68 167 4.0 10.0 0.00 0.09 0.09 84 1010.2
20260506234524 68 186 2.0 10.0 0.00 0.09 0.09 83 1010.3
20260506233024 68 205 5.0 17.0 0.00 0.09 0.09 82 1010.5
20260506231522 68 245 7.0 14.0 0.00 0.09 0.09 82 1010.6
20260506230027 68 227 7.0 15.0 0.00 0.09 0.09 82 1010.6
20260506224521 68 234 7.0 11.0 0.00 0.09 0.09 82 1010.5
20260506223021 68 254 5.0 13.0 0.00 0.09 0.09 81 1010.7
20260506221519 69 245 6.0 16.0 0.00 0.09 0.09 81 1010.3
20260506220017 68 237 10.0 17.0 0.00 0.09 0.09 81 1010.3
20260506214517 68 233 7.0 15.0 0.00 0.09 0.09 82 1010.4
20260506213016 68 240 7.0 20.0 0.00 0.09 0.09 81 1010.1
20260506211524 68 228 9.0 17.0 0.00 0.09 0.09 81 1009.8
20260506210029 68 184 8.0 14.0 0.00 0.09 0.09 81 1010.0
20260506204516 68 213 7.0 17.0 0.00 0.09 0.09 82 1010.4
20260506203012 67 224 9.0 19.0 0.00 0.09 0.09 82 1010.2
20260506201511 67 189 11.0 20.0 0.00 0.09 0.09 82 1010.2
20260506200011 66 281 7.0 16.0 0.00 0.09 0.09 84 1010.2
20260506194507 66 178 9.0 19.0 0.00 0.09 0.09 85 1010.3
20260506193004 65 211 9.0 21.0 0.00 0.09 0.09 86 1010.1
20260506191503 65 225 10.0 19.0 0.00 0.09 0.09 87 1010.3
20260506190003 65 252 6.0 20.0 0.00 0.09 0.09 88 1010.5
20260506184502 64 183 6.0 20.0 0.00 0.09 0.09 89 1009.7
20260506183105 64 176 9.0 13.0 0.01 0.09 0.09 89 1009.8
20260506181606 63 172 7.0 15.0 0.02 0.09 0.09 90 1010.6
20260506180057 63 169 7.0 19.0 0.02 0.09 0.09 90 1011.0
20260506174557 62 194 9.0 17.0 0.02 0.09 0.09 92 1011.3
20260506173123 62 218 10.0 18.0 0.01 0.08 0.08 92 1011.5
20260506171558 61 203 10.0 17.0 0.00 0.07 0.07 92 1011.9
20260506170106 61 223 5.0 18.0 0.00 0.07 0.07 92 1012.3
20260506164553 61 172 8.0 22.0 0.00 0.07 0.07 91 1011.9